Simultaneous Nadir Overpasses (SNOs) Predictions

Prediction of SNOs between FY3D and TERRA Satellite Orbit:

Table of predicted SNOs for the next 14.0 days since TLE Epoch: 5/2/2020
Index Date (FY3D) Time (FY3D) Lat,Lon (FY3D) SZA (FY3D ) Date (TERRA) Time (TERRA) Lat,Lon (TERRA) SZA (TERRA ) Distance(km) Time Diff (sec)
1 05/03/2020 10:02:40 68.82, 28.56 52.83 05/03/2020 10:03:06 68.83, 28.54 52.84 1.69 26
2 05/03/2020 10:53:21 -68.72,-163.98 127.28 05/03/2020 10:52:36 -68.71,-163.98 127.29 1.06 45
3 05/06/2020 02:19:04 68.83, 144.46 52.08 05/06/2020 02:19:37 68.82, 144.40 52.07 2.62 33
4 05/06/2020 03:09:45 -68.73, -48.09 128.03 05/06/2020 03:09:07 -68.71, -48.11 128.06 2.84 38
5 05/08/2020 18:35:28 68.84, -99.65 51.36 05/08/2020 18:36:09 68.86, -99.69 51.38 2.41 41
6 05/08/2020 19:26:09 -68.74, 67.80 128.75 05/08/2020 19:25:39 -68.75, 67.81 128.74 0.87 30
7 05/11/2020 10:51:52 68.91, 16.16 50.74 05/11/2020 10:52:42 68.89, 16.21 50.72 2.91 50
8 05/11/2020 11:42:32 -68.76,-176.31 129.43 05/11/2020 11:42:13 -68.73,-176.36 129.46 3.41 19
9 05/11/2020 12:33:01 67.83, -7.81 49.64 05/11/2020 12:31:53 67.90, -9.71 49.71 80.20 68
10 05/14/2020 03:08:16 68.93, 132.05 50.10 05/14/2020 03:09:18 68.92, 132.09 50.08 2.35 62
11 05/14/2020 03:58:56 -68.78, -60.42 130.07 05/14/2020 03:58:49 -68.76, -60.47 130.08 2.25 7
12 05/14/2020 04:49:33 68.28, 107.53 49.43 05/14/2020 04:48:22 68.32, 106.64 49.47 37.25 71




NCC Satellite Simultaneous Nadir Overpasses (SNOs) Prediction Service
